Le nostre stazioni meteo in Italia

Pubblicità
Il mio iltempo24.it
Capo Palinuro, Italia (16310): Temperatura & dewpoint: 18.07.2019 07:00:00 - 24.07.2019 07:00:00 (CEST)Capo Palinuro, Italia (16310): velocità del vento: 18.07.2019 07:00:00 - 24.07.2019 07:00:00 (CEST)Capo Palinuro, Italia (16310): direzione del vento: 18.07.2019 07:00:00 - 24.07.2019 07:00:00 (CEST)Capo Palinuro, Italia (16310): reduced air pressure: 18.07.2019 07:00:00 - 24.07.2019 07:00:00 (CEST)Capo Palinuro, Italia (16310): visibility: 18.07.2019 07:00:00 - 24.07.2019 07:00:00 (CEST)Capo Palinuro, Italia (16310): ore di luce: 18.07.2019 07:00:00 - 24.07.2019 07:00:00 (CEST)
Data & Tempo tt [°C] td [°C] ff [km/h] ff [kn] dd ppp [hPa] vv [km] sd [min]
24.07.2019 07:00:00 - - - - - - - -
24.07.2019 06:00:00 - - - - - - - -
24.07.2019 05:00:00 - - - - - - - -
24.07.2019 04:00:00 - - - - - - - -
24.07.2019 03:00:00 - - - - - - - -
24.07.2019 02:00:00 - - - - - - - -
24.07.2019 01:00:00 24,4 21,9 9 5 S 1015,2 10 -
24.07.2019 00:00:00 24,6 22,5 9 5 NNE 1015,4 20 -
23.07.2019 23:00:00 25,0 22,9 11 6 ESE 1015,4 20 -
23.07.2019 22:00:00 25,2 23,1 9 5 SSO 1015,4 20 -
23.07.2019 21:00:00 25,4 23,7 0 0 N 1015,4 20 -
23.07.2019 20:00:00 25,8 24,4 11 6 E 1015,2 20 60
23.07.2019 19:00:00 26,6 24,4 9 5 OSO 1015,3 20 60
23.07.2019 18:00:00 27,0 24,3 13 7 SO 1015,4 20 60
23.07.2019 17:00:00 27,0 24,5 9 5 SE 1015,6 20 60
23.07.2019 16:00:00 27,2 24,5 11 6 OSO 1015,8 20 60
23.07.2019 15:00:00 27,2 24,7 11 6 ESE 1016,0 20 60
23.07.2019 14:00:00 26,8 23,9 9 5 NE 1016,5 20 60
23.07.2019 13:00:00 26,8 23,7 11 6 NE 1016,9 20 60
23.07.2019 12:00:00 26,4 24,1 11 6 SSO 1017,1 20 48
23.07.2019 11:00:00 26,4 24,1 11 6 ESE 1017,1 20 60
23.07.2019 10:00:00 25,6 23,1 8 4 SSO 1017,2 10 60
23.07.2019 09:00:00 24,8 22,3 8 4 SO 1017,2 10 48
23.07.2019 08:00:00 24,0 21,5 0 0 N 1017,3 10 36
23.07.2019 07:00:00 23,2 20,7 0 0 N 1017,4 20 0
23.07.2019 06:00:00 23,8 21,4 0 0 N 1017,3 20 -
23.07.2019 05:00:00 24,0 21,5 0 0 N 1017,3 20 -
23.07.2019 04:00:00 - - - - - - - -
23.07.2019 03:00:00 - - - - - - - -
23.07.2019 02:00:00 24,2 22,3 0 0 N 1018,2 20 -
23.07.2019 01:00:00 24,2 22,5 0 0 N 1018,3 20 -
23.07.2019 00:00:00 24,4 22,7 0 0 N 1018,3 20 -
22.07.2019 23:00:00 24,6 22,9 0 0 N 1018,3 20 -
22.07.2019 22:00:00 25,0 23,3 0 0 N 1018,2 20 -
22.07.2019 21:00:00 25,0 23,3 172 93 SSO 1018,3 20 -
22.07.2019 20:00:00 25,4 24,2 5 3 SSO 1018,4 20 12
22.07.2019 19:00:00 26,0 24,8 9 5 SO 1018,4 20 60
22.07.2019 18:00:00 25,8 24,0 13 7 SO 1018,7 20 60
22.07.2019 17:00:00 26,6 24,8 16 9 SO 1018,8 20 60
22.07.2019 16:00:00 27,2 24,9 16 9 SO 1019,1 20 60
22.07.2019 15:00:00 27,8 24,9 22 12 SO 1019,1 20 60
22.07.2019 14:00:00 27,8 24,9 22 12 OSO 1019,1 20 60
22.07.2019 13:00:00 27,0 24,5 21 11 OSO 1019,1 20 60
22.07.2019 12:00:00 26,8 24,3 15 8 SO 1019,0 20 60
22.07.2019 11:00:00 25,6 23,5 15 8 SSO 1018,4 20 60
22.07.2019 10:00:00 25,0 22,7 9 5 ESE 1018,4 20 60
22.07.2019 09:00:00 24,6 22,3 4 2 NNE 1018,2 20 60
22.07.2019 08:00:00 24,0 21,5 9 5 SSE 1018,3 20 60
22.07.2019 07:00:00 - - - - - - - -
22.07.2019 06:00:00 23,8 20,6 11 6 SSE 1018,3 20 -
22.07.2019 05:00:00 24,0 20,6 8 4 ESE 1018,3 20 -
22.07.2019 04:00:00 24,0 22,2 8 4 ONO 1018,3 20 -
22.07.2019 03:00:00 - - - - - - - -
22.07.2019 02:00:00 24,0 21,9 4 2 NNE 1018,3 20 -
22.07.2019 01:00:00 24,0 20,7 4 2 NNE 1018,2 20 -
22.07.2019 00:00:00 24,0 20,7 4 2 NNE 1018,3 20 -
21.07.2019 23:00:00 24,0 22,3 8 4 NNE 1018,3 20 -
21.07.2019 22:00:00 24,8 23,2 8 4 N 1018,2 20 -
21.07.2019 21:00:00 24,8 23,4 4 2 NNE 1018,2 20 -
21.07.2019 20:00:00 25,0 23,3 8 4 NNE 1018,2 20 -
21.07.2019 19:00:00 26,0 23,9 11 6 SSE 1018,1 20 60
21.07.2019 18:00:00 26,2 23,5 11 6 SSE 1018,1 20 60
21.07.2019 17:00:00 26,2 24,4 11 6 NNE 1018,2 20 48
21.07.2019 16:00:00 27,0 23,5 11 6 NNE 1018,1 20 60
21.07.2019 15:00:00 26,0 23,9 15 8 NNE 1018,2 20 60
21.07.2019 14:00:00 26,4 23,5 9 5 ESE 1018,2 20 60
21.07.2019 13:00:00 26,0 23,9 11 6 NNE 1018,2 20 60
21.07.2019 12:00:00 26,0 23,3 15 8 E 1018,2 20 60
21.07.2019 11:00:00 25,0 22,5 15 8 NNE 1018,2 20 60
21.07.2019 10:00:00 25,0 22,9 13 7 S 1018,3 20 60
21.07.2019 09:00:00 23,8 21,3 13 7 SSO 1018,1 20 60
21.07.2019 08:00:00 23,6 21,7 13 7 O 1018,2 20 60
21.07.2019 07:00:00 23,2 21,5 9 5 O 1017,9 20 60
21.07.2019 06:00:00 - - - - - - - -
21.07.2019 05:00:00 22,0 19,7 11 6 SSO 1017,7 20 -
21.07.2019 04:00:00 - - - - - - - -
21.07.2019 03:00:00 - - - - - - - -
21.07.2019 02:00:00 23,0 20,3 8 4 SSO 1017,7 20 -
21.07.2019 01:00:00 23,0 20,3 8 4 O 1017,7 20 -
21.07.2019 00:00:00 23,0 20,9 9 5 NO 1017,4 15 -
20.07.2019 23:00:00 23,2 21,1 11 6 O 1017,5 15 -
20.07.2019 22:00:00 24,0 22,3 9 5 ONO 1017,4 10 -
20.07.2019 21:00:00 24,0 22,3 13 7 ONO 1017,4 15 -
20.07.2019 20:00:00 24,8 23,4 9 5 ONO 1017,3 10 -
20.07.2019 19:00:00 25,0 23,3 13 7 SSO 1017,3 20 60
20.07.2019 18:00:00 25,6 23,5 16 9 OSO 1017,2 20 60
20.07.2019 17:00:00 25,8 22,7 22 12 S 1017,2 20 60
20.07.2019 16:00:00 26,0 22,7 11 6 S 1017,0 20 60
20.07.2019 15:00:00 26,0 23,1 13 7 SSO 1016,7 20 60
20.07.2019 14:00:00 26,2 22,9 11 6 SSO 1016,7 20 60
20.07.2019 13:00:00 25,6 22,9 22 12 SSE 1016,5 20 60
20.07.2019 12:00:00 26,0 22,3 16 9 S 1016,3 20 60
20.07.2019 11:00:00 25,2 22,1 16 9 SSO 1016,4 20 60
20.07.2019 10:00:00 24,2 21,5 8 4 ESE 1016,3 20 60
20.07.2019 09:00:00 24,2 21,7 9 5 ESE 1016,2 20 60
20.07.2019 08:00:00 23,0 20,7 8 4 E 1015,8 20 0
20.07.2019 07:00:00 22,4 20,1 5 3 ESE 1015,5 20 -
20.07.2019 06:00:00 22,2 20,5 5 3 ENE 1015,4 20 -
20.07.2019 05:00:00 22,4 20,7 0 0 N 1015,4 20 -
20.07.2019 04:00:00 22,4 20,3 0 0 N 1015,4 20 -
20.07.2019 03:00:00 22,4 20,1 0 0 N 1015,4 20 -
20.07.2019 02:00:00 22,4 20,1 0 0 N 1015,4 20 -
20.07.2019 01:00:00 22,0 20,1 0 0 N 1015,4 20 -
20.07.2019 00:00:00 22,4 20,5 0 0 N 1015,3 20 -
19.07.2019 23:00:00 22,2 20,3 0 0 N 1015,2 20 -
19.07.2019 22:00:00 22,8 21,3 0 0 N 1014,9 20 -
19.07.2019 21:00:00 23,0 21,6 0 0 N 1014,7 20 -
19.07.2019 20:00:00 24,0 22,3 4 2 O 1014,6 20 0
19.07.2019 19:00:00 24,0 22,4 5 3 O 1014,6 20 0
19.07.2019 18:00:00 25,0 22,3 8 4 ONO 1014,5 20 0
19.07.2019 17:00:00 26,0 22,3 5 3 ONO 1014,7 20 60
19.07.2019 16:00:00 26,0 21,7 5 3 SSO 1014,7 20 60
19.07.2019 15:00:00 25,8 21,5 5 3 SSE 1014,7 20 60
19.07.2019 14:00:00 25,2 21,7 5 3 SO 1014,8 20 60
19.07.2019 13:00:00 25,2 21,7 8 4 S 1014,7 20 60
19.07.2019 12:00:00 25,0 21,7 5 3 SSO 1014,4 20 60
19.07.2019 11:00:00 24,6 21,1 5 3 S 1014,2 10 60
19.07.2019 10:00:00 23,8 20,3 5 3 S 1013,8 10 60
19.07.2019 09:00:00 - - - - - - - -
19.07.2019 08:00:00 21,8 19,5 9 5 SE 1013,3 20 60
19.07.2019 07:00:00 21,0 18,8 9 5 NNE 1013,4 20 48
19.07.2019 06:00:00 20,8 19,1 9 5 N 1013,4 20 -
19.07.2019 05:00:00 21,2 19,5 9 5 SE 1013,4 20 -
19.07.2019 04:00:00 - - - - - - - -
19.07.2019 03:00:00 21,8 20,3 9 5 SO 1013,3 20 -
19.07.2019 02:00:00 22,0 20,3 11 6 N 1013,3 20 -
19.07.2019 01:00:00 21,8 19,7 11 6 O 1013,2 20 -
19.07.2019 00:00:00 21,8 19,7 15 8 NNO 1013,0 20 -
18.07.2019 23:00:00 22,0 20,1 13 7 N 1012,6 20 -
18.07.2019 22:00:00 22,2 20,3 15 8 SSE 1012,1 10 -
18.07.2019 21:00:00 22,8 20,7 13 7 SSO 1011,7 20 -
18.07.2019 20:00:00 24,8 21,5 9 5 SSO 1011,4 20 12
18.07.2019 19:00:00 25,0 20,7 11 6 O 1011,5 20 60
18.07.2019 18:00:00 25,0 20,0 13 7 ONO 1011,7 20 60
18.07.2019 17:00:00 25,0 21,3 11 6 OSO 1011,7 20 60
18.07.2019 16:00:00 25,0 21,3 18 10 SSO 1011,7 20 60
18.07.2019 15:00:00 25,4 20,9 18 10 O 1011,7 20 60
18.07.2019 14:00:00 26,0 21,9 21 11 OSO 1011,1 20 60
18.07.2019 13:00:00 26,0 21,9 15 8 SSO 1010,9 20 60
18.07.2019 12:00:00 25,2 21,1 13 7 O 1011,0 20 60
18.07.2019 11:00:00 24,6 21,1 15 8 SSO 1011,0 20 60
18.07.2019 10:00:00 24,0 20,9 9 5 ONO 1010,6 20 60
18.07.2019 09:00:00 22,6 20,0 15 8 ONO 1010,7 20 60
18.07.2019 08:00:00 22,6 20,1 13 7 ONO 1010,7 20 60
18.07.2019 07:00:00 21,4 19,3 5 3 NNO 1010,8 20 -

tt = Temperatura
td = dewpoint
ff = velocità del vento
dd = direzione del vento
ppp = reduced air pressure
vv = visibility
sd = ore di luce

Stazioni seguenti

WeatherPro
AMSI
MeteoEarth